Overview Statistics Trail Chart Weather Telemetry Raw packets
 

This is the latest recevied weather packets stored in our database for station/object IONIA-WX. If no packets are shown the sender has not sent any weather packets the latest 10 day(s).

<< 12 13 14 15 16 17 18 >>
Time Temp. Humidity Pressure Rain* Wind** Luminosity Snow
1788328820 23.33° C 86% 983.6 hPa 0 mm - - -
1788327984 -17.78° C 100% - 0 mm - - -
1788327015 -17.78° C 100% - 0 mm - - -
1788326116 23.33° C 84% 983.7 hPa 0 mm - - -
1788325216 23.33° C 84% 983.7 hPa 0 mm - - -
1788324370 -17.78° C 100% - 0 mm - - -
1788323417 23.33° C 81% 983.7 hPa 0 mm - - -
1788322527 23.89° C 81% 983.7 hPa 0 mm - - -
1788321616 23.89° C 81% 983.7 hPa 0 mm - - -
1788320715 23.89° C 76% 984.1 hPa 0 mm - - -
1788319817 23.89° C 80% 984.2 hPa 0 mm - - -
1788318917 23.89° C 80% 984.1 hPa 0 mm - - -
1788318018 23.89° C 80% 984.1 hPa 0 mm - - -
1788317117 24.44° C 80% 983.9 hPa 0 mm - - -
1788316216 24.44° C 84% 984.3 hPa 0 mm - - -
1788315317 24.44° C 84% 984.3 hPa 0 mm - - -
1788314418 24.44° C 85% 985 hPa 0 mm - - -
1788313515 24.44° C 81% 983.9 hPa 0 mm - - -
1788312616 25° C 81% 983.9 hPa 0 mm - - -
1788311717 25° C 81% 983.8 hPa 0 mm - - -
1788310816 25° C 81% 983.8 hPa 0 mm - - -
1788309917 25.56° C 75% 983.9 hPa 0 mm - - -
1788309038 25.56° C 73% 984.2 hPa 0 mm - - -
1788308117 26.11° C 73% 984.2 hPa 0 mm - - -
1788307222 26.67° C 73% 984.2 hPa 0 mm - - -

* Rain latest hour (hover to see other rain measurements)
** Current wind speed in m/s (hover to see current wind gust speed)